sat.trackr.live / text

‹ back to catalog

STARLINK-11655 [DTC]

NORAD 63675 · 2025-085M

PAYLOAD ACTIVE UNKNOWN

§ Identity

Operator
Country
US
Launch date
2025-04-28
Launch site
AFETR
Launch vehicle
Mass (kg)
RCS (m²)

Purposes: comms

External: N2YO · Heavens-Above · Gunter

§ Orbital elements

Epoch: 2026-05-25T02:43:35.541120Z

Period
91.66 min
Inclination
43.0021°
Eccentricity
0.0002135
Mean motion
15.70941563 rev/d
Perigee alt
354.8 km
Apogee alt
357.6 km
Semi-major
6,734.3 km
B*
1.3249e-3
RAAN
177.5507°
Arg perigee
249.4188°
Mean anomaly
110.6450°
Rev number
6,226

§ Raw data

STARLINK-11655 [DTC]1 63675U 25085M   26145.11360580  .00173900  00000+0  13249-2 0  99992 63675  43.0021 177.5507 0002135 249.4188 110.6450 15.70941563 62262

JSON: /api/v1/satellites/63675 · /tle

For live sub-satellite position, see the globe view (requires WebGL).

§ Visibility from observer

Set your observer location to see the next 7 days of passes ≥ 10°. The values pass through the URL so the page stays shareable.

No JS? Fill the form by hand. The geolocation button needs JavaScript.